Regional Weather Roundup
Issued by NWS

Home | Current Version | Previous Version | Text Only | Print | Product List | Glossary On
Versions: 1 2 3 4 5 6 7 8 9 10 11 12 13 14 15 16 17 18 19 20 21 22 23 24 25 26 27 28 29 30 31 32 33 34 35 36 37 38 39 40 41 42 43 44 45 46 47 48 49 50
000
ASUS45 KSLC 250910
RWRUT

UTAH REGIONAL WEATHER ROUNDUP
NATIONAL WEATHER SERVICE SALT LAKE CITY UT
300 AM MDT MON MAY 25 2015

UTZ001>011-023>025-251000-

NORTHERN UTAH

CITY           SKY/WX    TMP DP  RH WIND       PRES   REMARKS
BRIGHAM CITY   CLOUDY    53  49  86 CALM      29.93R
HILL AFB       MOCLDY    48  46  94 SE9       29.93S
LOGAN          CLOUDY    52  48  86 SE5       29.92F
OGDEN          CLOUDY    50  46  86 S9        29.92R
PROVO AIRPORT  MOCLDY    54  46  76 CALM      29.95R
SALT LAKE CITY MOCLDY    52  48  86 SE7       29.92S
VERNAL         LGT RAIN  47  43  86 NW3       29.96S
WENDOVER       MOCLDY    55  45  67 W5        29.92S
HEBER CITY     CLOUDY    45  41  87 CALM      29.97S
WEST JORDAN    CLOUDY    48  48 100 CALM      29.94R

$$

UTZ012>022-026-027-251000-

SOUTHERN/CENTRAL UTAH

CITY           SKY/WX    TMP DP  RH WIND       PRES   REMARKS
BLANDING       CLOUDY    49  41  73 CALM      30.03S
BRYCE CANYON   PTCLDY    42  38  85 W12       30.04S
CEDAR CITY     CLOUDY    47  44  90 NE5       29.98S
DELTA          MOCLDY    45  43  90 S7        29.95F
HANKSVILLE     CLOUDY    54  46  76 N6        29.92S
MILFORD        MOCLDY    46  43  89 W6        29.96F
MOAB/CYNLANDS  CLOUDY    53  43  68 E8        29.90S
PRICE          PTCLDY    47  36  65 NE6       29.94S
ST GEORGE      PTSUNNY   59  50  72 N8        29.94R
KANAB          CLOUDY    46  46 100 CALM      30.01S

$$

REGIONAL REPORTS     COLORADO/ARIZONA

CITY           SKY/WX    TMP DP  RH WIND       PRES   REMARKS
CRAIG, CO      CLOUDY    44  39  82 CALM      29.97S
GRAND JUNCTION LGT RAIN  46  46 100 S5        29.94S
RIFLE          CLOUDY    45  41  86 S3        29.97S
MONTROSE       LGT RAIN  46  45  96 W8        29.99R
CORTEZ         MOCLDY    46  42  86 CALM      29.97S
PAGE, AZ       MOCLDY    60  43  53 NW3       29.92S
GRAND CANYON   CLOUDY    42  41  96 CALM      30.05S
KINGMAN        CLOUDY    58  51  78 E9        29.98R
FLAGSTAFF      MOCLDY    44  39  82 CALM      30.07S

$$

REGIONAL REPORTS    NEVADA/IDAHO/WYOMING

CITY           SKY/WX    TMP DP  RH WIND       PRES   REMARKS
LAS VEGAS, NV  MOCLDY    64  54  69 SE5       29.88S
ELY            PTCLDY    38  36  92 S8        30.04S WCI  32
ELKO           CLEAR     42  41  96 W3        29.97S
POCATELLO, ID  CLEAR     50  46  86 S8        29.92S
BURLEY         MOCLDY    44  42  93 CALM      29.91S
EVANSTON, WY   CLOUDY    42  40  92 S6        29.98F
ROCK SPRINGS   CLOUDY    41  38  89 SE5       29.98F
KEMMERER       CLOUDY    41  37  87 CALM      30.00S

$$



USA.gov is the U.S. government's official web portal to all federal, state and local government web resources and services.